Flag for U.S.A. Weather past 2 weeks in Palestine, Texas, U.S.A.

Now
66 °F

Light rain. Low clouds.


Feels Like: 66 °F
Forecast: 39 / 65 °F
Wind: 6 mph from South

Location: Palestine Municipal Airport

Current Time: Mar 4, 2015 at 10:52:17 AM

Latest Report: Mar 4, 2015 at 10:15 AM


Visibility: 2 mi

Pressure: 29.89 "Hg

Humidity: 100%

Dew point: 66 °F

Location of PalestineLocation

Historic Weather in Palestine — Graph

°F

Palestine temperature yesterday

Maximum temperature yesterday: 70 °F (at 2:15 PM)
Minimum temperature yesterday: 46 °F (at 12:15 AM)
Average temperature yesterday: 57 °F

Past Weeks' High & Low Weather Summary

 TemperatureHumidityPressure
High71 °F (Feb 21, 1:15 PM)100% (Feb 18, 12:15 AM)30.50 "Hg (Feb 18, 12:15 AM)
Low27 °F (Feb 26, 6:15 AM)38% (Feb 18, 11:55 AM)29.80 "Hg (Feb 20, 5:35 PM)
Average44 °F84%30.19 "Hg
* Reported Feb 17 9:15 AM — Mar 4 9:35 AM, Palestine, Weather by CustomWeather, © 2015

Note: Actual official high and low records may vary slightly from our data, if they occured in-between our weather recording intervals... More about our weather records

Advertising

Palestine weather history for previous 24 hours

 ConditionsComfort  
Time TempWeatherWind HumidityBarometerVisibility
9:35 AM
Wed, Mar 4
65 °FLight rain. Low clouds.3 mph100%29.90 "Hg1 mi
9:15 AM65 °FRain. Mostly cloudy.No wind100%29.89 "Hg2 mi
8:55 AM65 °FHeavy rain. Mostly cloudy.No wind100%29.90 "Hg1 mi
8:35 AM65 °FRain. Low clouds.No wind100%29.90 "Hg1 mi
8:15 AM65 °FRain. Low clouds.No wind100%29.90 "Hg1 mi
7:55 AM65 °FLight rain. Mostly cloudy.No wind100%29.89 "Hg1 mi
7:35 AM64 °FHeavy rain. Low clouds.No wind100%29.88 "Hg1 mi
7:15 AM65 °FRain. Low clouds.No wind100%29.88 "Hg1 mi
6:55 AM65 °FLight rain. Low clouds.No wind100%29.88 "Hg1 mi
6:35 AM65 °FFog.No wind100%29.88 "Hg2 mi
6:15 AM65 °FRain. Mostly cloudy.No wind100%29.87 "Hg1 mi
5:55 AM65 °FLight rain. Low clouds.No wind100%29.87 "Hg1 mi
5:35 AM65 °FRain. Low clouds.No wind100%29.87 "Hg2 mi
5:15 AM65 °FDrizzle. Overcast.No wind100%29.87 "Hg2 mi
4:55 AM65 °FRain. Mostly cloudy.3 mph100%29.87 "Hg3 mi
4:35 AM65 °FFog.No wind100%29.86 "Hg4 mi
4:15 AM65 °FFog.3 mph99%29.86 "Hg5 mi
3:55 AM65 °FLow clouds.5 mph98%29.86 "Hg7 mi
3:35 AM65 °FLow clouds.6 mph98%29.85 "Hg7 mi
3:15 AM65 °FLow clouds.6 mph99%29.84 "Hg7 mi
2:55 AM65 °FMostly cloudy.5 mph99%29.85 "Hg7 mi
2:35 AM64 °FMostly cloudy.5 mph98%29.85 "Hg7 mi
2:15 AM64 °FMostly cloudy.5 mph98%29.87 "Hg7 mi
1:55 AM64 °FMostly cloudy.5 mph97%29.87 "Hg7 mi
1:35 AM64 °FOvercast.5 mph97%29.87 "Hg7 mi
1:15 AM63 °FMostly cloudy.No wind98%29.88 "Hg7 mi
12:55 AM61 °FFog.3 mph100%29.88 "Hg5 mi
12:15 AM59 °FFog.No wind100%29.89 "Hg3 mi
11:55 PM
Tue, Mar 3
59 °FFog.No wind100%29.90 "Hg2 mi
11:35 PM59 °FFog.3 mph100%29.90 "Hg2 mi
11:15 PM59 °FFog.No wind100%29.91 "Hg2 mi
10:55 PM59 °FFog.No wind100%29.91 "Hg2 mi
10:35 PM59 °FFog.3 mph100%29.91 "Hg3 mi
10:15 PM59 °FFog.No wind100%29.91 "Hg3 mi
9:15 PM61 °FFog.No wind100%29.89 "Hg4 mi
8:55 PM62 °FFog.7 mph99%29.88 "Hg4 mi
8:35 PM65 °FFog.8 mph100%29.87 "Hg4 mi
8:15 PM67 °FMostly cloudy.3 mph96%29.87 "Hg7 mi
7:55 PM67 °FPartly cloudy.3 mph95%29.85 "Hg7 mi
7:35 PM67 °FPartly cloudy.3 mph93%29.85 "Hg7 mi
7:15 PM68 °FMostly cloudy.3 mph93%29.85 "Hg7 mi
6:55 PM67 °FMostly cloudy.3 mph93%29.84 "Hg7 mi
6:35 PM68 °FMostly cloudy.No wind91%29.85 "Hg7 mi
6:15 PM68 °FCloudy.3 mph91%29.84 "Hg7 mi
5:55 PM69 °FCloudy.No wind91%29.84 "Hg7 mi
5:35 PM69 °FLight rain. Cloudy.3 mph89%29.84 "Hg7 mi
5:15 PM69 °FCloudy.3 mph87%29.84 "Hg7 mi
4:55 PM69 °FMostly cloudy.5 mph87%29.85 "Hg10 mi
4:35 PM69 °FMostly cloudy.3 mph87%29.84 "Hg10 mi
4:15 PM69 °FCloudy.6 mph86%29.85 "Hg10 mi
3:55 PM69 °FCloudy.7 mph87%29.85 "Hg10 mi
3:15 PM69 °FLight rain. Mostly cloudy.7 mph86%29.86 "Hg10 mi
2:55 PM69 °FMostly cloudy.6 mph86%29.87 "Hg10 mi
2:15 PM70 °FCloudy.10 mph82%29.89 "Hg10 mi
1:15 PM66 °FLow clouds.8 mph90%29.94 "Hg10 mi
12:55 PM65 °FLow clouds.9 mph92%29.95 "Hg10 mi
12:40 PM65 °FLow clouds.9 mph91%29.96 "Hg10 mi
12:20 PM64 °FLow clouds.8 mph92%29.97 "Hg7 mi
11:55 AM62 °FLow clouds.8 mph98%29.99 "Hg7 mi
11:15 AM60 °FLow clouds.9 mph100%30.00 "Hg7 mi
10:55 AM58 °FFog.10 mph100%30.00 "Hg4 mi
10:15 AM54 °FFog.5 mph100%30.03 "Hg1 mi
Weather by CustomWeather, © 2015

See weather overviewHow to use our weather pages